Weather History for Gulfport, MS

Change the Weather History Date:

Friday, October 4, 2013

  Actual Average Record
Temperature  
Mean Temperature 81 °F -  
Max Temperature 87 °F 82 °F 90 °F (1963)
Min Temperature 75 °F 63 °F 46 °F (1987)
Cooling Degree Days 16    
Growing Degree Days 31 (Base 50)    
Moisture  
Dew Point 74 °F    
Average Humidity 79    
Maximum Humidity 94    
Minimum Humidity 65    
Precipitation  
Precipitation 0.00 in - - ()
Sea Level Pressure  
Sea Level Pressure 30.01 in    
Wind  
Wind Speed 7 mph (SE)    
Max Wind Speed 18 mph    
Max Gust Speed 23 mph    
Visibility 10 miles    
Events      
Averages and records for this station are not official NWS values.
T = Trace of Precipitation, MM = Missing Value Source: NWS Daily Summary

Daily Weather History Graph

Daily Weather History Graph

Search for Another Location

Airport:

Trip Planner

Search our weather history database for the weather conditions in past years. The results will help you decide how hot, cold, wet, or windy it might be!

Date:

Astronomy

Oct. 04, 2013 Rise Set
Actual Time 6:51 AM CDT 6:37 PM CDT
Civil Twilight 6:27 AM CDT 7:01 PM CDT
Nautical Twilight 5:59 AM CDT 7:29 PM CDT
Astronomical Twilight 5:31 AM CDT 7:57 PM CDT
Moon 6:26 AM CDT (10/4) 6:22 PM CDT (10/4)
Length of Visible Light 12h 33m
Length of Day
11h 45m
Waning Crescent, 0% of the Moon is Illuminated
Oct 4
Waning Crescent
Oct 4
New
Oct 11
First Quarter
Oct 18
Full
Oct 26
Last Quarter

Hourly Weather History & Observations

Time (CDT) Temp. Heat Index Dew Point Humidity Pressure Visibility Wind Dir Wind Speed Gust Speed Precip Events Conditions
12:02 AM 80.6 °F 85.4 °F 73.4 °F 79% 30.00 in 10.0 mi South 11.5 mph - N/A   Scattered Clouds
12:53 AM 80.1 °F 84.2 °F 73.0 °F 79% 30.00 in 10.0 mi South 8.1 mph - N/A   Partly Cloudy
1:53 AM 78.1 °F - 73.0 °F 84% 29.99 in 10.0 mi SSE 3.5 mph - N/A   Clear
2:53 AM 75.9 °F - 73.0 °F 91% 29.98 in 10.0 mi Calm Calm - N/A   Clear
3:46 AM 77.0 °F - 73.4 °F 89% 29.97 in 10.0 mi Calm Calm - N/A   Mostly Cloudy
3:53 AM 77.0 °F - 73.9 °F 90% 29.97 in 10.0 mi Calm Calm - N/A   Scattered Clouds
4:53 AM 75.9 °F - 73.0 °F 91% 29.98 in 10.0 mi Calm Calm - N/A   Partly Cloudy
5:53 AM 75.0 °F - 73.0 °F 94% 30.00 in 10.0 mi Calm Calm - N/A   Clear
6:53 AM 75.9 °F - 73.0 °F 91% 30.01 in 10.0 mi ENE 4.6 mph - N/A   Clear
7:53 AM 77.0 °F - 73.9 °F 90% 30.03 in 10.0 mi ENE 4.6 mph - N/A   Partly Cloudy
8:53 AM 82.9 °F 90.2 °F 75.0 °F 77% 30.03 in 10.0 mi East 9.2 mph - N/A   Partly Cloudy
9:53 AM 84.0 °F 91.9 °F 75.0 °F 74% 30.04 in 10.0 mi ESE 10.4 mph - N/A   Clear
10:53 AM 84.9 °F 92.1 °F 73.9 °F 69% 30.04 in 10.0 mi ESE 13.8 mph - N/A   Scattered Clouds
11:53 AM 84.9 °F 93.3 °F 75.0 °F 72% 30.04 in 10.0 mi ESE 17.3 mph - N/A   Partly Cloudy
12:53 PM 86.0 °F 95.1 °F 75.0 °F 70% 30.04 in 10.0 mi SE 17.3 mph - N/A   Scattered Clouds
1:53 PM 87.1 °F 96.3 °F 75.0 °F 67% 30.01 in 9.0 mi ESE 16.1 mph - N/A   Scattered Clouds
2:53 PM 87.1 °F 95.4 °F 73.9 °F 65% 30.01 in 10.0 mi SE 18.4 mph 23.0 mph N/A   Partly Cloudy
3:20 PM 84.2 °F 90.9 °F 73.4 °F 70% 30.01 in 10.0 mi South 12.7 mph - N/A   Mostly Cloudy
3:28 PM 84.2 °F 90.9 °F 73.4 °F 70% 30.00 in 9.0 mi South 12.7 mph 20.7 mph N/A   Mostly Cloudy
3:53 PM 82.9 °F 88.8 °F 73.0 °F 72% 30.00 in 10.0 mi South 9.2 mph - N/A   Mostly Cloudy
4:46 PM 84.2 °F 89.6 °F 71.6 °F 66% 30.00 in 10.0 mi South 6.9 mph - N/A   Clear
4:53 PM 84.0 °F 89.6 °F 72.0 °F 67% 30.00 in 10.0 mi South 6.9 mph - N/A   Clear
5:53 PM 82.9 °F 88.8 °F 73.0 °F 72% 30.01 in 10.0 mi Calm Calm - N/A   Clear
6:53 PM 81.0 °F 85.8 °F 73.0 °F 77% 30.01 in 10.0 mi ESE 5.8 mph - N/A   Clear
7:53 PM 80.1 °F 84.2 °F 73.0 °F 79% 30.01 in 10.0 mi Calm Calm - N/A   Clear
8:53 PM 79.0 °F - 73.0 °F 82% 30.02 in 10.0 mi Calm Calm - N/A   Clear
9:53 PM 79.0 °F - 73.9 °F 84% 30.03 in 10.0 mi ENE 4.6 mph - N/A   Clear
10:53 PM 79.0 °F - 73.9 °F 84% 30.03 in 10.0 mi East 4.6 mph - N/A   Clear
11:53 PM 78.1 °F - 73.9 °F 87% 30.01 in 10.0 mi Variable 3.5 mph - N/A   Scattered Clouds